Year,Month,Day,Hour,Minute,Value (Times are PST for temperature in C)
2015,02,20,00,00,5.80
2015,02,20,00,01,5.80
2015,02,20,00,02,5.80
2015,02,20,00,03,5.80
2015,02,20,00,04,5.80
2015,02,20,00,05,5.80
2015,02,20,00,06,5.80
2015,02,20,00,07,5.80
2015,02,20,00,08,5.80
2015,02,20,00,09,5.80
2015,02,20,00,10,5.80
2015,02,20,00,11,5.80
2015,02,20,00,12,5.70
2015,02,20,00,13,5.70
2015,02,20,00,14,5.70
2015,02,20,00,15,5.70
2015,02,20,00,16,5.70
2015,02,20,00,17,5.70
2015,02,20,00,18,5.70
2015,02,20,00,19,5.60
2015,02,20,00,20,5.60
2015,02,20,00,21,5.60
2015,02,20,00,22,5.50
2015,02,20,00,23,5.50
2015,02,20,00,24,5.50
2015,02,20,00,25,5.50
2015,02,20,00,26,5.40
2015,02,20,00,27,5.40
2015,02,20,00,28,5.40
2015,02,20,00,29,5.40
2015,02,20,00,30,5.40
2015,02,20,00,31,5.40
2015,02,20,00,32,5.40
2015,02,20,00,33,5.40
2015,02,20,00,34,5.40
2015,02,20,00,35,5.40
2015,02,20,00,36,5.40
2015,02,20,00,37,5.40
2015,02,20,00,38,5.40
2015,02,20,00,39,5.40
2015,02,20,00,40,5.40
2015,02,20,00,41,5.30
2015,02,20,00,42,5.30
2015,02,20,00,43,5.30
2015,02,20,00,44,5.30
2015,02,20,00,45,5.30
2015,02,20,00,46,5.30
2015,02,20,00,47,5.30
2015,02,20,00,48,5.30
2015,02,20,00,49,5.30
2015,02,20,00,50,5.30
2015,02,20,00,51,5.20
2015,02,20,00,52,5.20
2015,02,20,00,53,5.20
2015,02,20,00,54,5.20
2015,02,20,00,55,5.20
2015,02,20,00,56,5.20
2015,02,20,00,57,5.20
2015,02,20,00,58,5.20
2015,02,20,00,59,5.20
2015,02,20,01,00,5.10
2015,02,20,01,01,5.10
2015,02,20,01,02,5.00
2015,02,20,01,03,5.00
2015,02,20,01,04,4.90
2015,02,20,01,05,4.90
2015,02,20,01,06,4.90
2015,02,20,01,07,4.90
2015,02,20,01,08,4.90
2015,02,20,01,09,4.80
2015,02,20,01,10,4.80
2015,02,20,01,11,4.80
2015,02,20,01,12,4.80
2015,02,20,01,13,4.80
2015,02,20,01,14,4.80
2015,02,20,01,15,4.80
2015,02,20,01,16,4.80
2015,02,20,01,17,4.80
2015,02,20,01,18,4.80
2015,02,20,01,19,4.80
2015,02,20,01,20,4.80
2015,02,20,01,21,4.80
2015,02,20,01,22,4.80
2015,02,20,01,23,4.80
2015,02,20,01,24,4.80
2015,02,20,01,25,4.80
2015,02,20,01,26,4.80
2015,02,20,01,27,4.80
2015,02,20,01,28,4.80
2015,02,20,01,29,4.80
2015,02,20,01,30,4.80
2015,02,20,01,31,4.70
2015,02,20,01,32,4.70
2015,02,20,01,33,4.70
2015,02,20,01,34,4.80
2015,02,20,01,35,4.80
2015,02,20,01,36,4.80
2015,02,20,01,37,4.90
2015,02,20,01,38,4.90
2015,02,20,01,39,4.90
2015,02,20,01,40,4.90
2015,02,20,01,41,5.00
2015,02,20,01,42,5.00
2015,02,20,01,43,5.10
2015,02,20,01,44,5.10
2015,02,20,01,45,5.10
2015,02,20,01,46,5.10
2015,02,20,01,47,5.10
2015,02,20,01,48,5.10
2015,02,20,01,49,5.10
2015,02,20,01,50,5.00
2015,02,20,01,51,5.00
2015,02,20,01,52,5.00
2015,02,20,01,53,4.90
2015,02,20,01,54,4.90
2015,02,20,01,55,4.90
2015,02,20,01,56,4.80
2015,02,20,01,57,4.80
2015,02,20,01,58,4.80
2015,02,20,01,59,4.70
2015,02,20,02,00,4.70
2015,02,20,02,01,4.70
2015,02,20,02,02,4.60
2015,02,20,02,03,4.60
2015,02,20,02,04,4.60
2015,02,20,02,05,4.60
2015,02,20,02,06,4.60
2015,02,20,02,07,4.60
2015,02,20,02,08,4.50
2015,02,20,02,09,4.50
2015,02,20,02,10,4.50
2015,02,20,02,11,4.50
2015,02,20,02,12,4.50
2015,02,20,02,13,4.50
2015,02,20,02,14,4.50
2015,02,20,02,15,4.60
2015,02,20,02,16,4.60
2015,02,20,02,17,4.60
2015,02,20,02,18,4.60
2015,02,20,02,19,4.70
2015,02,20,02,20,4.70
2015,02,20,02,21,4.70
2015,02,20,02,22,4.70
2015,02,20,02,23,4.70
2015,02,20,02,24,4.70
2015,02,20,02,25,4.70
2015,02,20,02,26,4.70
2015,02,20,02,27,4.70
2015,02,20,02,28,4.60
2015,02,20,02,29,4.70
2015,02,20,02,30,4.60
2015,02,20,02,31,4.60
2015,02,20,02,32,4.60
2015,02,20,02,33,4.60
2015,02,20,02,34,4.60
2015,02,20,02,35,4.60
2015,02,20,02,36,4.60
2015,02,20,02,37,4.60
2015,02,20,02,38,4.60
2015,02,20,02,39,4.60
2015,02,20,02,40,4.60
2015,02,20,02,41,4.60
2015,02,20,02,42,4.60
2015,02,20,02,43,4.60
2015,02,20,02,44,4.60
2015,02,20,02,45,4.60
2015,02,20,02,46,4.60
2015,02,20,02,47,4.60
2015,02,20,02,48,4.60
2015,02,20,02,49,4.60
2015,02,20,02,50,4.60
2015,02,20,02,51,4.60
2015,02,20,02,52,4.60
2015,02,20,02,53,4.60
2015,02,20,02,54,4.60
2015,02,20,02,55,4.60
2015,02,20,02,56,4.60
2015,02,20,02,57,4.60
2015,02,20,02,58,4.70
2015,02,20,02,59,4.70
2015,02,20,03,00,4.70
2015,02,20,03,01,4.70
2015,02,20,03,02,4.60
2015,02,20,03,03,4.60
2015,02,20,03,04,4.60
2015,02,20,03,05,4.60
2015,02,20,03,06,4.50
2015,02,20,03,07,4.50
2015,02,20,03,08,4.50
2015,02,20,03,09,4.50
2015,02,20,03,10,4.40
2015,02,20,03,11,4.40
2015,02,20,03,12,4.40
2015,02,20,03,13,4.40
2015,02,20,03,14,4.40
2015,02,20,03,15,4.40
2015,02,20,03,16,4.40
2015,02,20,03,17,4.40
2015,02,20,03,18,4.40
2015,02,20,03,19,4.30
2015,02,20,03,20,4.30
2015,02,20,03,21,4.30
2015,02,20,03,22,4.30
2015,02,20,03,23,4.40
2015,02,20,03,24,4.40
2015,02,20,03,25,4.40
2015,02,20,03,26,4.40
2015,02,20,03,27,4.40
2015,02,20,03,28,4.40
2015,02,20,03,29,4.40
2015,02,20,03,30,4.40
2015,02,20,03,31,4.50
2015,02,20,03,32,4.50
2015,02,20,03,33,4.50
2015,02,20,03,34,4.50
2015,02,20,03,35,4.50
2015,02,20,03,36,4.50
2015,02,20,03,37,4.60
2015,02,20,03,38,4.60
2015,02,20,03,39,4.60
2015,02,20,03,40,4.60
2015,02,20,03,41,4.60
2015,02,20,03,42,4.60
2015,02,20,03,43,4.60
2015,02,20,03,44,4.60
2015,02,20,03,45,4.60
2015,02,20,03,46,4.60
2015,02,20,03,47,4.60
2015,02,20,03,48,4.60
2015,02,20,03,49,4.60
2015,02,20,03,50,4.60
2015,02,20,03,51,4.60
2015,02,20,03,52,4.60
2015,02,20,03,53,4.60
2015,02,20,03,54,4.50
2015,02,20,03,55,4.50
2015,02,20,03,56,4.50
2015,02,20,03,57,4.50
2015,02,20,03,58,4.50
2015,02,20,03,59,4.40
2015,02,20,04,00,4.40
2015,02,20,04,01,4.40
2015,02,20,04,02,4.40
2015,02,20,04,03,4.40
2015,02,20,04,04,4.40
2015,02,20,04,05,4.40
2015,02,20,04,06,4.40
2015,02,20,04,07,4.40
2015,02,20,04,08,4.40
2015,02,20,04,09,4.40
2015,02,20,04,10,4.40
2015,02,20,04,11,4.30
2015,02,20,04,12,4.30
2015,02,20,04,13,4.40
2015,02,20,04,14,4.40
2015,02,20,04,15,4.30
2015,02,20,04,16,4.40
2015,02,20,04,17,4.40
2015,02,20,04,18,4.40
2015,02,20,04,19,4.40
2015,02,20,04,20,4.40
2015,02,20,04,21,4.40
2015,02,20,04,22,4.40
2015,02,20,04,23,4.40
2015,02,20,04,24,4.40
2015,02,20,04,25,4.40
2015,02,20,04,26,4.40
2015,02,20,04,27,4.50
2015,02,20,04,28,4.50
2015,02,20,04,29,4.50
2015,02,20,04,30,4.50
2015,02,20,04,31,4.50
2015,02,20,04,32,4.50
2015,02,20,04,33,4.50
2015,02,20,04,34,4.50
2015,02,20,04,35,4.50
2015,02,20,04,36,4.50
2015,02,20,04,37,4.50
2015,02,20,04,38,4.60
2015,02,20,04,39,4.50
2015,02,20,04,40,4.60
2015,02,20,04,41,4.60
2015,02,20,04,42,4.60
2015,02,20,04,43,4.60
2015,02,20,04,44,4.60
2015,02,20,04,45,4.60
2015,02,20,04,46,4.60
2015,02,20,04,47,4.60
2015,02,20,04,48,4.60
2015,02,20,04,49,4.60
2015,02,20,04,50,4.60
2015,02,20,04,51,4.60
2015,02,20,04,52,4.60
2015,02,20,04,53,4.60
2015,02,20,04,54,4.60
2015,02,20,04,55,4.60
2015,02,20,04,56,4.60
2015,02,20,04,57,4.60
2015,02,20,04,58,4.60
2015,02,20,04,59,4.60
2015,02,20,05,00,4.60
2015,02,20,05,01,4.60
2015,02,20,05,02,4.60
2015,02,20,05,03,4.60
2015,02,20,05,04,4.60
2015,02,20,05,05,4.60
2015,02,20,05,06,4.60
2015,02,20,05,07,4.60
2015,02,20,05,08,4.50
2015,02,20,05,09,4.50
2015,02,20,05,10,4.50
2015,02,20,05,11,4.50
2015,02,20,05,12,4.50
2015,02,20,05,13,4.50
2015,02,20,05,14,4.50
2015,02,20,05,15,4.50
2015,02,20,05,16,4.50
2015,02,20,05,17,4.50
2015,02,20,05,18,4.50
2015,02,20,05,19,4.40
2015,02,20,05,20,4.40
2015,02,20,05,21,4.40
2015,02,20,05,22,4.40
2015,02,20,05,23,4.40
2015,02,20,05,24,4.40
2015,02,20,05,25,4.40
2015,02,20,05,26,4.40
2015,02,20,05,27,4.40
2015,02,20,05,28,4.40
2015,02,20,05,29,4.40
2015,02,20,05,30,4.30
2015,02,20,05,31,4.30
2015,02,20,05,32,4.30
2015,02,20,05,33,4.30
2015,02,20,05,34,4.30
2015,02,20,05,35,4.40
2015,02,20,05,36,4.40
2015,02,20,05,37,4.40
2015,02,20,05,38,4.40
2015,02,20,05,39,4.40
2015,02,20,05,40,4.40
2015,02,20,05,41,4.40
2015,02,20,05,42,4.40
2015,02,20,05,43,4.40
2015,02,20,05,44,4.40
2015,02,20,05,45,4.40
2015,02,20,05,46,4.40
2015,02,20,05,47,4.40
2015,02,20,05,48,4.40
2015,02,20,05,49,4.40
2015,02,20,05,50,4.40
2015,02,20,05,51,4.40
2015,02,20,05,52,4.40
2015,02,20,05,53,4.40
2015,02,20,05,54,4.40
2015,02,20,05,55,4.40
2015,02,20,05,56,4.40
2015,02,20,05,57,4.40
2015,02,20,05,58,4.40
2015,02,20,05,59,4.40
2015,02,20,06,00,4.40
2015,02,20,06,01,4.40
2015,02,20,06,02,4.40
2015,02,20,06,03,4.40
2015,02,20,06,04,4.40
2015,02,20,06,05,4.40
2015,02,20,06,06,4.40
2015,02,20,06,07,4.40
2015,02,20,06,08,4.40
2015,02,20,06,09,4.40
2015,02,20,06,10,4.40
2015,02,20,06,11,4.50
2015,02,20,06,12,4.50
2015,02,20,06,13,4.50
2015,02,20,06,14,4.50
2015,02,20,06,15,4.50
2015,02,20,06,16,4.50
2015,02,20,06,17,4.50
2015,02,20,06,18,4.60
2015,02,20,06,19,4.60
2015,02,20,06,20,4.60
2015,02,20,06,21,4.60
2015,02,20,06,22,4.60
2015,02,20,06,23,4.60
2015,02,20,06,24,4.60
2015,02,20,06,25,4.60
2015,02,20,06,26,4.60
2015,02,20,06,27,4.60
2015,02,20,06,28,4.60
2015,02,20,06,29,4.60
2015,02,20,06,30,4.60
2015,02,20,06,31,4.60
2015,02,20,06,32,4.60
2015,02,20,06,33,4.70
2015,02,20,06,34,4.70
2015,02,20,06,35,4.70
2015,02,20,06,36,4.70
2015,02,20,06,37,4.70
2015,02,20,06,38,4.70
2015,02,20,06,39,4.70
2015,02,20,06,40,4.70
2015,02,20,06,41,4.70
2015,02,20,06,42,4.80
2015,02,20,06,43,4.80
2015,02,20,06,44,4.80
2015,02,20,06,45,4.80
2015,02,20,06,46,4.80
2015,02,20,06,47,4.80
2015,02,20,06,48,4.80
2015,02,20,06,49,4.80
2015,02,20,06,50,4.70
2015,02,20,06,51,4.70
2015,02,20,06,52,4.70
2015,02,20,06,53,4.70
2015,02,20,06,54,4.70
2015,02,20,06,55,4.70
2015,02,20,06,56,4.70
2015,02,20,06,57,4.70
2015,02,20,06,58,4.70
2015,02,20,06,59,4.80
2015,02,20,07,00,4.80
2015,02,20,07,01,4.80
2015,02,20,07,02,4.80
2015,02,20,07,03,4.80
2015,02,20,07,04,4.80
2015,02,20,07,05,4.80
2015,02,20,07,06,4.80
2015,02,20,07,07,4.80
2015,02,20,07,08,4.80
2015,02,20,07,09,4.80
2015,02,20,07,10,4.80
2015,02,20,07,11,4.80
2015,02,20,07,12,4.80
2015,02,20,07,13,4.80
2015,02,20,07,14,4.80
2015,02,20,07,15,4.80
2015,02,20,07,16,4.80
2015,02,20,07,17,4.80
2015,02,20,07,18,4.80
2015,02,20,07,19,4.80
2015,02,20,07,20,4.80
2015,02,20,07,21,4.80
2015,02,20,07,22,4.80
2015,02,20,07,23,4.80
2015,02,20,07,24,4.80
2015,02,20,07,25,4.80
2015,02,20,07,26,4.80
2015,02,20,07,27,4.90
2015,02,20,07,28,4.90
2015,02,20,07,29,4.90
2015,02,20,07,30,4.90
2015,02,20,07,31,4.90
2015,02,20,07,32,4.90
2015,02,20,07,33,4.90
2015,02,20,07,34,4.90
2015,02,20,07,35,4.90
2015,02,20,07,36,4.90
2015,02,20,07,37,4.90
2015,02,20,07,38,4.90
2015,02,20,07,39,4.90
2015,02,20,07,40,4.90
2015,02,20,07,41,4.90
2015,02,20,07,42,4.90
2015,02,20,07,43,4.90
2015,02,20,07,44,4.90
2015,02,20,07,45,4.90
2015,02,20,07,46,4.90
2015,02,20,07,47,4.90
2015,02,20,07,48,4.90
2015,02,20,07,49,5.00
2015,02,20,07,50,5.00
2015,02,20,07,51,5.00
2015,02,20,07,52,5.00
2015,02,20,07,53,5.10
2015,02,20,07,54,5.10
2015,02,20,07,55,5.10
2015,02,20,07,56,5.10
2015,02,20,07,57,5.10
2015,02,20,07,58,5.10
2015,02,20,07,59,5.10
2015,02,20,08,00,5.20
2015,02,20,08,01,5.20
2015,02,20,08,02,5.20
2015,02,20,08,03,5.20
2015,02,20,08,04,5.20
2015,02,20,08,05,5.20
2015,02,20,08,06,5.20
2015,02,20,08,07,5.20
2015,02,20,08,08,5.30
2015,02,20,08,09,5.30
2015,02,20,08,10,5.30
2015,02,20,08,11,5.30
2015,02,20,08,12,5.30
2015,02,20,08,13,5.40
2015,02,20,08,14,5.40
2015,02,20,08,15,5.40
2015,02,20,08,16,5.40
2015,02,20,08,17,5.40
2015,02,20,08,18,5.40
2015,02,20,08,19,5.40
2015,02,20,08,20,5.50
2015,02,20,08,21,5.50
2015,02,20,08,22,5.60
2015,02,20,08,23,5.60
2015,02,20,08,24,5.70
2015,02,20,08,25,5.70
2015,02,20,08,26,5.90
2015,02,20,08,27,5.90
2015,02,20,08,28,6.00
2015,02,20,08,29,6.00
2015,02,20,08,30,6.00
2015,02,20,08,31,6.00
2015,02,20,08,32,6.10
2015,02,20,08,33,6.10
2015,02,20,08,34,6.20
2015,02,20,08,35,6.20
2015,02,20,08,36,6.20
2015,02,20,08,37,6.20
2015,02,20,08,38,6.30
2015,02,20,08,39,6.30
2015,02,20,08,40,6.30
2015,02,20,08,41,6.30
2015,02,20,08,42,6.30
2015,02,20,08,43,6.30
2015,02,20,08,44,6.30
2015,02,20,08,45,6.30
2015,02,20,08,46,6.30
2015,02,20,08,47,6.30
2015,02,20,08,48,6.30
2015,02,20,08,49,6.30
2015,02,20,08,50,6.30
2015,02,20,08,51,6.30
2015,02,20,08,52,6.40
2015,02,20,08,53,6.40
2015,02,20,08,54,6.40
2015,02,20,08,55,6.50
2015,02,20,08,56,6.50
2015,02,20,08,57,6.60
2015,02,20,08,58,6.60
2015,02,20,08,59,6.60
2015,02,20,09,00,6.60
2015,02,20,09,01,6.60
2015,02,20,09,02,6.60
2015,02,20,09,03,6.60
2015,02,20,09,04,6.60
2015,02,20,09,05,6.60
2015,02,20,09,06,6.70
2015,02,20,09,07,6.70
2015,02,20,09,08,6.80
2015,02,20,09,09,6.80
2015,02,20,09,10,6.80
2015,02,20,09,11,6.80
2015,02,20,09,12,6.90
2015,02,20,09,13,6.90
2015,02,20,09,14,6.90
2015,02,20,09,15,7.00
2015,02,20,09,16,7.00
2015,02,20,09,17,7.10
2015,02,20,09,18,7.10
2015,02,20,09,19,7.20
2015,02,20,09,20,7.20
2015,02,20,09,21,7.20
2015,02,20,09,22,7.20
2015,02,20,09,23,7.20
2015,02,20,09,24,7.30
2015,02,20,09,25,7.30
2015,02,20,09,26,7.30
2015,02,20,09,27,7.30
2015,02,20,09,28,7.30
2015,02,20,09,29,7.30
2015,02,20,09,30,7.40
2015,02,20,09,31,7.40
2015,02,20,09,32,7.40
2015,02,20,09,33,7.40
2015,02,20,09,34,7.40
2015,02,20,09,35,7.40
2015,02,20,09,36,7.50
2015,02,20,09,37,7.50
2015,02,20,09,38,7.50
2015,02,20,09,39,7.60
2015,02,20,09,40,7.60
2015,02,20,09,41,7.60
2015,02,20,09,42,7.60
2015,02,20,09,43,7.60
2015,02,20,09,44,7.70
2015,02,20,09,45,7.70
2015,02,20,09,46,7.80
2015,02,20,09,47,7.90
2015,02,20,09,48,7.90
2015,02,20,09,49,7.90
2015,02,20,09,50,8.00
2015,02,20,09,51,8.00
2015,02,20,09,52,8.10
2015,02,20,09,53,8.20
2015,02,20,09,54,8.20
2015,02,20,09,55,8.20
2015,02,20,09,56,8.30
2015,02,20,09,57,8.30
2015,02,20,09,58,8.30
2015,02,20,09,59,8.40
2015,02,20,10,00,8.40
2015,02,20,10,01,8.40
2015,02,20,10,02,8.40
2015,02,20,10,03,8.50
2015,02,20,10,04,8.50
2015,02,20,10,05,8.60
2015,02,20,10,06,8.60
2015,02,20,10,07,8.70
2015,02,20,10,08,8.70
2015,02,20,10,09,8.80
2015,02,20,10,10,8.90
2015,02,20,10,11,9.00
2015,02,20,10,12,9.10
2015,02,20,10,13,9.20
2015,02,20,10,14,9.20
2015,02,20,10,15,9.20
2015,02,20,10,16,9.30
2015,02,20,10,17,9.30
2015,02,20,10,18,9.30
2015,02,20,10,19,9.40
2015,02,20,10,20,9.40
2015,02,20,10,21,9.30
2015,02,20,10,22,9.30
2015,02,20,10,23,9.30
2015,02,20,10,24,9.30
2015,02,20,10,25,9.30
2015,02,20,10,26,9.30
2015,02,20,10,27,9.30
2015,02,20,10,28,9.20
2015,02,20,10,29,9.20
2015,02,20,10,30,9.20
2015,02,20,10,31,9.20
2015,02,20,10,32,9.20
2015,02,20,10,33,9.20
2015,02,20,10,34,9.20
2015,02,20,10,35,9.20
2015,02,20,10,36,9.20
2015,02,20,10,37,9.30
2015,02,20,10,38,9.30
2015,02,20,10,39,9.30
2015,02,20,10,40,9.30
2015,02,20,10,41,9.30
2015,02,20,10,42,9.30
2015,02,20,10,43,9.30
2015,02,20,10,44,9.30
2015,02,20,10,45,9.40
2015,02,20,10,46,9.50
2015,02,20,10,47,9.60
2015,02,20,10,48,9.60
2015,02,20,10,49,9.70
2015,02,20,10,50,9.70
2015,02,20,10,51,9.80
2015,02,20,10,52,9.90
2015,02,20,10,53,9.90
2015,02,20,10,54,9.90
2015,02,20,10,55,9.90
2015,02,20,10,56,10.00
2015,02,20,10,57,10.00
2015,02,20,10,58,10.00
2015,02,20,10,59,10.00
2015,02,20,11,00,10.00
2015,02,20,11,01,9.90
2015,02,20,11,02,10.00
2015,02,20,11,03,10.00
2015,02,20,11,04,10.00
2015,02,20,11,05,10.00
2015,02,20,11,06,10.00
2015,02,20,11,07,10.00
2015,02,20,11,08,10.10
2015,02,20,11,09,10.10
2015,02,20,11,10,10.20
2015,02,20,11,11,10.20
2015,02,20,11,12,10.20
2015,02,20,11,13,10.20
2015,02,20,11,14,10.30
2015,02,20,11,15,10.30
2015,02,20,11,16,10.30
2015,02,20,11,17,10.30
2015,02,20,11,18,10.30
2015,02,20,11,19,10.30
2015,02,20,11,20,10.30
2015,02,20,11,21,10.30
2015,02,20,11,22,10.30
2015,02,20,11,23,10.30
2015,02,20,11,24,10.40
2015,02,20,11,25,10.40
2015,02,20,11,26,10.40
2015,02,20,11,27,10.50
2015,02,20,11,28,10.60
2015,02,20,11,29,10.70
2015,02,20,11,30,10.70
2015,02,20,11,31,10.80
2015,02,20,11,32,10.90
2015,02,20,11,33,11.00
2015,02,20,11,34,11.00
2015,02,20,11,35,11.10
2015,02,20,11,36,11.10
2015,02,20,11,37,11.10
2015,02,20,11,38,11.00
2015,02,20,11,39,11.00
2015,02,20,11,40,10.90
2015,02,20,11,41,10.90
2015,02,20,11,42,10.90
2015,02,20,11,43,10.80
2015,02,20,11,44,10.80
2015,02,20,11,45,10.80
2015,02,20,11,46,10.80
2015,02,20,11,47,10.80
2015,02,20,11,48,10.80
2015,02,20,11,49,10.80
2015,02,20,11,50,10.80
2015,02,20,11,51,10.90
2015,02,20,11,52,10.90
2015,02,20,11,53,10.90
2015,02,20,11,54,10.90
2015,02,20,11,55,10.80
2015,02,20,11,56,10.80
2015,02,20,11,57,10.90
2015,02,20,11,58,11.00
2015,02,20,11,59,11.00
2015,02,20,12,00,10.90
2015,02,20,12,01,10.90
2015,02,20,12,02,10.90
2015,02,20,12,03,11.00
2015,02,20,12,04,11.00
2015,02,20,12,05,11.10
2015,02,20,12,06,11.10
2015,02,20,12,07,11.10
2015,02,20,12,08,11.10
2015,02,20,12,09,11.10
2015,02,20,12,10,11.10
2015,02,20,12,11,11.10
2015,02,20,12,12,11.10
2015,02,20,12,13,11.10
2015,02,20,12,14,11.10
2015,02,20,12,15,11.10
2015,02,20,12,16,11.10
2015,02,20,12,17,11.00
2015,02,20,12,18,11.00
2015,02,20,12,19,11.10
2015,02,20,12,20,11.10
2015,02,20,12,21,11.10
2015,02,20,12,22,11.10
2015,02,20,12,23,11.00
2015,02,20,12,24,11.00
2015,02,20,12,25,10.90
2015,02,20,12,26,10.90
2015,02,20,12,27,10.90
2015,02,20,12,28,10.90
2015,02,20,12,29,11.00
2015,02,20,12,30,11.00
2015,02,20,12,31,11.10
2015,02,20,12,32,11.10
2015,02,20,12,33,11.10
2015,02,20,12,34,11.20
2015,02,20,12,35,11.20
2015,02,20,12,36,11.20
2015,02,20,12,37,11.30
2015,02,20,12,38,11.30
2015,02,20,12,39,11.30
2015,02,20,12,40,11.30
2015,02,20,12,41,11.30
2015,02,20,12,42,11.20
2015,02,20,12,43,11.20
2015,02,20,12,44,11.20
2015,02,20,12,45,11.20
2015,02,20,12,46,11.20
2015,02,20,12,47,11.20
2015,02,20,12,48,11.20
2015,02,20,12,49,11.20
2015,02,20,12,50,11.30
2015,02,20,12,51,11.20
2015,02,20,12,52,11.20
2015,02,20,12,53,11.20
2015,02,20,12,54,11.10
2015,02,20,12,55,11.10
2015,02,20,12,56,11.10
2015,02,20,12,57,11.00
2015,02,20,12,58,11.00
2015,02,20,12,59,10.90
2015,02,20,13,00,10.90
2015,02,20,13,01,11.00
2015,02,20,13,02,11.00
2015,02,20,13,03,11.00
2015,02,20,13,04,11.00
2015,02,20,13,05,11.00
2015,02,20,13,06,11.00
2015,02,20,13,07,11.00
2015,02,20,13,08,11.00
2015,02,20,13,09,11.00
2015,02,20,13,10,11.00
2015,02,20,13,11,11.10
2015,02,20,13,12,11.10
2015,02,20,13,13,11.10
2015,02,20,13,14,11.20
2015,02,20,13,15,11.20
2015,02,20,13,16,11.20
2015,02,20,13,17,11.20
2015,02,20,13,18,11.20
2015,02,20,13,19,11.20
2015,02,20,13,20,11.10
2015,02,20,13,21,11.10
2015,02,20,13,22,11.20
2015,02,20,13,23,11.20
2015,02,20,13,24,11.10
2015,02,20,13,25,11.10
2015,02,20,13,26,11.10
2015,02,20,13,27,11.10
2015,02,20,13,28,11.10
2015,02,20,13,29,11.10
2015,02,20,13,30,11.10
2015,02,20,13,31,11.20
2015,02,20,13,32,11.20
2015,02,20,13,33,11.20
2015,02,20,13,34,11.20
2015,02,20,13,35,11.20
2015,02,20,13,36,11.30
2015,02,20,13,37,11.30
2015,02,20,13,38,11.30
2015,02,20,13,39,11.40
2015,02,20,13,40,11.40
2015,02,20,13,41,11.40
2015,02,20,13,42,11.40
2015,02,20,13,43,11.30
2015,02,20,13,44,11.30
2015,02,20,13,45,11.30
2015,02,20,13,46,11.30
2015,02,20,13,47,11.30
2015,02,20,13,48,11.40
2015,02,20,13,49,11.40
2015,02,20,13,50,11.40
2015,02,20,13,51,11.40
2015,02,20,13,52,11.30
2015,02,20,13,53,11.30
2015,02,20,13,54,11.30
2015,02,20,13,55,11.30
2015,02,20,13,56,11.30
2015,02,20,13,57,11.30
2015,02,20,13,58,11.20
2015,02,20,13,59,11.20
2015,02,20,14,00,11.20
2015,02,20,14,01,11.20
2015,02,20,14,02,11.20
2015,02,20,14,03,11.10
2015,02,20,14,04,11.00
2015,02,20,14,05,11.00
2015,02,20,14,06,10.90
2015,02,20,14,07,10.90
2015,02,20,14,08,10.90
2015,02,20,14,09,10.90
2015,02,20,14,10,10.90
2015,02,20,14,11,11.00
2015,02,20,14,12,11.00
2015,02,20,14,13,11.00
2015,02,20,14,14,11.10
2015,02,20,14,15,11.10
2015,02,20,14,16,11.10
2015,02,20,14,17,11.20
2015,02,20,14,18,11.20
2015,02,20,14,19,11.10
2015,02,20,14,20,11.10
2015,02,20,14,21,11.00
2015,02,20,14,22,11.00
2015,02,20,14,23,11.00
2015,02,20,14,24,11.00
2015,02,20,14,25,11.00
2015,02,20,14,26,11.00
2015,02,20,14,27,11.00
2015,02,20,14,28,11.00
2015,02,20,14,29,11.00
2015,02,20,14,30,11.00
2015,02,20,14,31,11.00
2015,02,20,14,32,11.00
2015,02,20,14,33,10.90
2015,02,20,14,34,10.90
2015,02,20,14,35,10.90
2015,02,20,14,36,10.90
2015,02,20,14,37,10.90
2015,02,20,14,38,10.90
2015,02,20,14,39,10.90
2015,02,20,14,40,10.90
2015,02,20,14,41,10.90
2015,02,20,14,42,10.80
2015,02,20,14,43,10.80
2015,02,20,14,44,10.80
2015,02,20,14,45,10.80
2015,02,20,14,46,10.80
2015,02,20,14,47,10.80
2015,02,20,14,48,10.80
2015,02,20,14,49,10.80
2015,02,20,14,50,10.80
2015,02,20,14,51,10.80
2015,02,20,14,52,10.80
2015,02,20,14,53,10.80
2015,02,20,14,54,10.80
2015,02,20,14,55,10.80
2015,02,20,14,56,10.80
2015,02,20,14,57,10.80
2015,02,20,14,58,10.90
2015,02,20,14,59,10.90
2015,02,20,15,00,10.90
2015,02,20,15,01,10.90
2015,02,20,15,02,11.00
2015,02,20,15,03,11.00
2015,02,20,15,04,11.00
2015,02,20,15,05,11.10
2015,02,20,15,06,11.00
2015,02,20,15,07,11.00
2015,02,20,15,08,10.90
2015,02,20,15,09,10.90
2015,02,20,15,10,10.90
2015,02,20,15,11,10.90
2015,02,20,15,12,10.90
2015,02,20,15,13,10.90
2015,02,20,15,14,10.90
2015,02,20,15,15,10.80
2015,02,20,15,16,10.80
2015,02,20,15,17,10.70
2015,02,20,15,18,10.70
2015,02,20,15,19,10.70
2015,02,20,15,20,10.70
2015,02,20,15,21,10.70
2015,02,20,15,22,10.70
2015,02,20,15,23,10.70
2015,02,20,15,24,10.70
2015,02,20,15,25,10.70
2015,02,20,15,26,10.80
2015,02,20,15,27,10.80
2015,02,20,15,28,10.80
2015,02,20,15,29,10.80
2015,02,20,15,30,10.80
2015,02,20,15,31,10.80
2015,02,20,15,32,10.80
2015,02,20,15,33,10.90
2015,02,20,15,34,10.90
2015,02,20,15,35,10.90
2015,02,20,15,36,10.90
2015,02,20,15,37,10.90
2015,02,20,15,38,10.90
2015,02,20,15,39,10.90
2015,02,20,15,40,11.00
2015,02,20,15,41,11.10
2015,02,20,15,42,11.20
2015,02,20,15,43,11.20
2015,02,20,15,44,11.20
2015,02,20,15,45,11.20
2015,02,20,15,46,11.10
2015,02,20,15,47,11.10
2015,02,20,15,48,11.20
2015,02,20,15,49,11.20
2015,02,20,15,50,11.10
2015,02,20,15,51,11.10
2015,02,20,15,52,11.10
2015,02,20,15,53,11.10
2015,02,20,15,54,11.10
2015,02,20,15,55,11.10
2015,02,20,15,56,11.10
2015,02,20,15,57,11.10
2015,02,20,15,58,11.20
2015,02,20,15,59,11.10
2015,02,20,16,00,11.20
2015,02,20,16,01,11.10
2015,02,20,16,02,11.10
2015,02,20,16,03,11.10
2015,02,20,16,04,11.10
2015,02,20,16,05,11.10
2015,02,20,16,06,11.00
2015,02,20,16,07,10.90
2015,02,20,16,08,10.90
2015,02,20,16,09,10.90
2015,02,20,16,10,10.90
2015,02,20,16,11,11.00
2015,02,20,16,12,11.00
2015,02,20,16,13,10.90
2015,02,20,16,14,10.90
2015,02,20,16,15,10.80
2015,02,20,16,16,10.80
2015,02,20,16,17,10.80
2015,02,20,16,18,10.90
2015,02,20,16,19,10.90
2015,02,20,16,20,10.90
2015,02,20,16,21,10.80
2015,02,20,16,22,10.80
2015,02,20,16,23,10.90
2015,02,20,16,24,10.90
2015,02,20,16,25,10.90
2015,02,20,16,26,10.90
2015,02,20,16,27,10.80
2015,02,20,16,28,10.80
2015,02,20,16,29,10.70
2015,02,20,16,30,10.70
2015,02,20,16,31,10.60
2015,02,20,16,32,10.60
2015,02,20,16,33,10.60
2015,02,20,16,34,10.60
2015,02,20,16,35,10.60
2015,02,20,16,36,10.50
2015,02,20,16,37,10.50
2015,02,20,16,38,10.50
2015,02,20,16,39,10.40
2015,02,20,16,40,10.40
2015,02,20,16,41,10.40
2015,02,20,16,42,10.40
2015,02,20,16,43,10.40
2015,02,20,16,44,10.30
2015,02,20,16,45,10.30
2015,02,20,16,46,10.30
2015,02,20,16,47,10.30
2015,02,20,16,48,10.30
2015,02,20,16,49,10.30
2015,02,20,16,50,10.20
2015,02,20,16,51,10.20
2015,02,20,16,52,10.20
2015,02,20,16,53,10.20
2015,02,20,16,54,10.20
2015,02,20,16,55,10.20
2015,02,20,16,56,10.10
2015,02,20,16,57,10.10
2015,02,20,16,58,10.10
2015,02,20,16,59,10.10
2015,02,20,17,00,10.00
2015,02,20,17,01,10.00
2015,02,20,17,02,10.00
2015,02,20,17,03,9.90
2015,02,20,17,04,9.90
2015,02,20,17,05,9.90
2015,02,20,17,06,9.90
2015,02,20,17,07,9.90
2015,02,20,17,08,9.80
2015,02,20,17,09,9.80
2015,02,20,17,10,9.80
2015,02,20,17,11,9.80
2015,02,20,17,12,9.80
2015,02,20,17,13,9.80
2015,02,20,17,14,9.80
2015,02,20,17,15,9.80
2015,02,20,17,16,9.80
2015,02,20,17,17,9.80
2015,02,20,17,18,9.70
2015,02,20,17,19,9.70
2015,02,20,17,20,9.70
2015,02,20,17,21,9.70
2015,02,20,17,22,9.70
2015,02,20,17,23,9.60
2015,02,20,17,24,9.60
2015,02,20,17,25,9.60
2015,02,20,17,26,9.60
2015,02,20,17,27,9.60
2015,02,20,17,28,9.60
2015,02,20,17,29,9.60
2015,02,20,17,30,9.60
2015,02,20,17,31,9.60
2015,02,20,17,32,9.60
2015,02,20,17,33,9.60
2015,02,20,17,34,9.50
2015,02,20,17,35,9.50
2015,02,20,17,36,9.50
2015,02,20,17,37,9.50
2015,02,20,17,38,9.50
2015,02,20,17,39,9.40
2015,02,20,17,40,9.40
2015,02,20,17,41,9.40
2015,02,20,17,42,9.40
2015,02,20,17,43,9.40
2015,02,20,17,44,9.40
2015,02,20,17,45,9.40
2015,02,20,17,46,9.40
2015,02,20,17,47,9.40
2015,02,20,17,48,9.40
2015,02,20,17,49,9.40
2015,02,20,17,50,9.40